THOR ABLESTAR DEB, 141

Orbit data source: Space-Track

THOR ABLESTAR DEB, 141 is space debris in LEO originally from a launch on Thu, 29 Jun 1961 UTC launched from the Air Force Eastern Test Range (AFETR). Debris objects in space refer to the collection of defunct objects orbiting the Earth. Examples of debris include non-operational satellites, rocket bodies, and fragments generated from explosions, collisions, or faulty payload assembly.

Loading next visibility...
Identifier
141, 1961-015AB
Orbit
LEO
Last TLE update
1 day ago
Origin
Manufacturer
Unknown
Mission
Spacecraft
Bus & Motor
Unknown
Mass
Unknown
Launch date (UTC)
1961-06-29 (64 years ago)
Launch vehicle
Unknown
Launch site
Air Force Eastern Test Range (AFETR)
Object type
Payload
Rocket body
Debris
Shape & HBR
Unknown
Radar Cross Section
Medium (>0.1 m² and <1 m²)

Expand to show TLE details & history

TLE from 1 day ago
0 THOR ABLESTAR DEB
1 00141U 61015AB  25118.62179216  .00000574  00000-0  53353-3 0  9998
2 00141  66.5901 341.5958 0060718 313.7221  45.8835 13.88623111214252
Epoch: 2025-04-28T14:55Z
Definitive object data (Epoch: 2025-04-28T14:55:22.842Z)
Latitude
-0.00002°
Longitude
-99.08256°
Altitude
904.75 km
Speed
7.416 km/s
True Right ascension
22h 46m 22s
True Declination
0° 00' 00"
Sunlit
Object was in daylight at TLE epoch
Visualization TLE readout
Latitude
-58.96025°
Longitude
-148.27734°
Altitude
914.046 km
Speed
7.415 km/s
Apparent Right ascension
20h 10m 51s
Apparent Declination
-50° 15' 41"
Sunlit
Object is in daylight
Visualization observer readout
Local Sidereal Time
08:42:30
Azimuth
154.37° SSE
Elevation
-78.258°
Doppler factor
1
Orbital elements
Apogee altitude
976.264 km
Perigee altitude
887.494 km
Semi-major axis
7,310.016 km
Eccentricity
0.0060718
Inclination
66.5901°
RAAN
341.5958°
Arg. of periapsis
313.7221°
True anomaly
46.38566°
Mean anomaly
45.8835°
Eccentric anomaly
46.13432°
Mean motion
3.47269 °/min
BSTAR
0.00053353
Orbital period
103.67 mins
Loading maneuver chart data...
Loading SW <> Apogee altitude chart data...

THOR ABLESTAR DEB Visibility forecast

Observer location: undefined°, undefined°

Span
Click to sort rows by Start time (UTC) header in descending order
Start Az.
Max El. time (UTC)
Max El. Az.
Max El.
End time (UTC)
End Az.
11 mins2025-04-30 02:04:01.677Z319.611° NNW2025-04-30 02:10:01.677Z236.751° WSW37.648°2025-04-30 02:15:01.677Z175.783° S
9 mins2025-04-30 15:27:01.677Z171.346° S2025-04-30 15:31:01.677Z110.283° ESE33.465°2025-04-30 15:36:01.677Z45.622° ENE
9 mins2025-04-30 17:14:01.677Z256.251° W2025-04-30 17:18:01.677Z316.158° NNW29.346°2025-04-30 17:23:01.677Z12.836° NNE
10 mins2025-05-01 00:31:01.677Z347.079° N2025-05-01 00:36:01.677Z61.15° ENE35.047°2025-05-01 00:41:01.677Z122.848° SE
|